Weather History for 94866 - December, 2012

Change the Weather History Date:

Friday, December 7, 2012

  Actual Average Record
Temperature  
Mean Temperature 68 °F -  
Max Temperature 86 °F 74 °F - ()
Min Temperature 51 °F 52 °F - ()
Cooling Degree Days 4    
Growing Degree Days 18 (Base 50)    
Moisture  
Dew Point 44 °F    
Average Humidity 45    
Maximum Humidity 88    
Minimum Humidity 11    
Precipitation  
Precipitation 0.00 in 0.06 in - ()
Sea Level Pressure  
Sea Level Pressure 30.05 in    
Wind  
Wind Speed 7 mph ()    
Max Wind Speed 15 mph    
Max Gust Speed -    
Visibility 18.4 miles    
Events      
T = Trace of Precipitation, MM = Missing Value Source: Averaged Metar Reports

Daily Weather History Graph

Daily Weather History Graph

Search for Another Location

Airport or City:

Trip Planner

Search our weather history database for the weather conditions in past years. The results will help you decide how hot, cold, wet, or windy it might be!

Date:

Astronomy

Dec. 07, 2012 Rise Set
Actual Time 5:52 AM AEDT 8:32 PM AEDT
Civil Twilight 5:21 AM AEDT 9:03 PM AEDT
Nautical Twilight 4:42 AM AEDT 9:41 PM AEDT
Astronomical Twilight 3:59 AM AEDT 10:25 PM AEDT
Moon 1:17 AM AEDT (12/7) 1:37 PM AEDT (12/7)
Length of Visible Light 15h 41m
Length of Day
14h 40m
Last Quarter, 46% of the Moon is Illuminated
Dec 7
Last Quarter
Dec 13
New
Dec 20
First Quarter
Dec 28
Full
Jan 5
Last Quarter

Hourly Weather History & Observations

Time (AEDT) Temp. Dew Point Humidity Pressure Visibility Wind Dir Wind Speed Gust Speed Precip Events Conditions
12:00 AM 56 °F 50 °F 73% 30.13 in 19 mi WNW 6.9 mph - -   Partly Cloudy
12:00 AM 57.2 °F 50.0 °F 77% 30.12 in - WNW 6.9 mph - N/A   Clear
12:30 AM 55.4 °F 50.0 °F 82% 30.12 in - WNW 5.8 mph - N/A   Clear
1:00 AM 55.4 °F 51.8 °F 88% 30.12 in - NW 5.8 mph - N/A   Clear
1:30 AM 55.4 °F 51.8 °F 88% 30.12 in - NW 6.9 mph - N/A   Clear
2:00 AM 55 °F 51 °F 83% 30.10 in - East 3.5 mph - -  
2:00 AM 55.4 °F 51.8 °F 88% 30.09 in - East 3.5 mph - N/A   Clear
2:30 AM 55.4 °F 51.8 °F 88% 30.09 in - NW 5.8 mph - N/A   Clear
3:00 AM 53 °F 50 °F 87% 30.09 in 19 mi North 5.8 mph - -   Partly Cloudy
3:00 AM 53.6 °F 50.0 °F 88% 30.09 in - North 5.8 mph - N/A   Clear
3:30 AM 53.6 °F 50.0 °F 88% 30.09 in - North 4.6 mph - N/A   Clear
4:00 AM 53.6 °F 50.0 °F 88% 30.06 in - North 6.9 mph - N/A   Clear
4:30 AM 53.6 °F 50.0 °F 88% 30.06 in - North 6.9 mph - N/A   Clear
5:00 AM 53 °F 49 °F 83% 30.08 in - North 8.1 mph - -  
5:00 AM 53.6 °F 50.0 °F 88% 30.06 in - North 8.1 mph - N/A   Clear
5:30 AM 53.6 °F 50.0 °F 88% 30.09 in - North 8.1 mph - N/A   Clear
6:00 AM 54 °F 49 °F 78% 30.09 in 16 mi North 8.1 mph - -   Haze
6:00 AM 53.6 °F 50.0 °F 88% 30.09 in - North 8.1 mph - N/A   Clear
6:30 AM 55.4 °F 50.0 °F 82% 30.09 in - North 9.2 mph - N/A   Clear
7:00 AM 57.2 °F 50.0 °F 77% 30.09 in - North 8.1 mph - N/A   Clear
7:30 AM 59.0 °F 50.0 °F 72% 30.09 in - North 10.4 mph - N/A   Clear
8:00 AM 62 °F 49 °F 54% 30.08 in - North 10.4 mph - -  
8:00 AM 62.6 °F 50.0 °F 63% 30.06 in - North 10.4 mph - N/A   Clear
8:30 AM 64.4 °F 48.2 °F 56% 30.09 in - North 8.1 mph - N/A   Clear
9:00 AM 71 °F 44 °F 26% 30.09 in 19 mi North 9.2 mph - -   Haze
9:00 AM 69.8 °F 42.8 °F 38% 30.09 in - North 9.2 mph - N/A   Clear
9:30 AM 73.4 °F 48.2 °F 41% 30.09 in - North 10.4 mph - N/A   Clear
10:00 AM 75.2 °F 48.2 °F 38% 30.09 in - North 5.8 mph - N/A   Clear
10:30 AM 78.8 °F 44.6 °F 30% 30.09 in - NNW 9.2 mph - N/A   Clear
11:00 AM 79 °F 44 °F 18% 30.09 in - NNW 8.1 mph - -  
11:00 AM 78.8 °F 44.6 °F 30% 30.09 in - NNW 8.1 mph - N/A   Clear
11:30 AM 80.6 °F 42.8 °F 26% 30.06 in - West 6.9 mph - N/A   Clear
12:00 PM 82 °F 40 °F 14% 30.07 in 22 mi North 5.8 mph - -   Partly Cloudy
12:00 PM 82.4 °F 41.0 °F 23% 30.06 in - North 5.8 mph - N/A   Clear
12:30 PM 84.2 °F 39.2 °F 20% 30.06 in - North 8.1 mph - N/A   Clear
1:00 PM 84.2 °F 37.4 °F 19% 30.04 in - WNW 5.8 mph - N/A   Clear
1:30 PM 84.2 °F 37.4 °F 19% 30.04 in - North 8.1 mph - N/A   Clear
2:00 PM 84.2 °F 37.4 °F 19% 30.04 in - West 11.5 mph - N/A   Clear
2:30 PM 84.2 °F 39.2 °F 20% 30.04 in - NNW 9.2 mph - N/A   Clear
3:00 PM 86 °F 40 °F 11% 30.02 in 22 mi North 13.8 mph - -  
3:00 PM 86.0 °F 39.2 °F 19% 30.01 in - North 13.8 mph - N/A   Clear
3:30 PM 86.0 °F 37.4 °F 18% 30.01 in - West 11.5 mph - N/A   Clear
4:00 PM 84.2 °F 37.4 °F 19% 30.01 in - NW 8.1 mph - N/A   Clear
4:30 PM 84.2 °F 37.4 °F 19% 30.01 in - NNW 5.8 mph - N/A   Clear
5:00 PM 85 °F 41 °F 12% 30.00 in - NNW 9.2 mph - -  
5:00 PM 86.0 °F 41.0 °F 20% 30.01 in - NNW 9.2 mph - N/A   Clear
5:30 PM 86.0 °F 37.4 °F 18% 29.98 in - NW 13.8 mph - N/A   Clear
6:00 PM 85 °F 38 °F 11% 30.00 in 22 mi NW 6.9 mph - -   Partly Cloudy
6:00 PM 84.2 °F 39.2 °F 20% 29.98 in - NW 6.9 mph - N/A   Clear
6:30 PM 84.2 °F 37.4 °F 19% 29.98 in - NW 9.2 mph - N/A   Clear
7:00 PM 84.2 °F 37.4 °F 19% 30.01 in - NW 12.7 mph - N/A   Clear
7:30 PM 82.4 °F 35.6 °F 19% 30.01 in - NW 9.2 mph - N/A   Clear
8:00 PM 82 °F 36 °F 11% 30.01 in - NNW 8.1 mph - -  
8:00 PM 82.4 °F 37.4 °F 20% 30.01 in - NNW 8.1 mph - N/A   Clear
8:30 PM 80.6 °F 37.4 °F 21% 30.01 in - North 8.1 mph - N/A   Clear
9:00 PM 76 °F 40 °F 17% 30.01 in 19 mi North 8.1 mph - -   Mostly Cloudy
9:00 PM 77.0 °F 39.2 °F 26% 30.01 in - North 8.1 mph - N/A   Clear
9:30 PM 75.2 °F 41.0 °F 29% 30.01 in - North 10.4 mph - N/A   Clear
10:00 PM 75.2 °F 41.0 °F 29% 30.01 in - North 15.0 mph - N/A   Clear
10:30 PM 75.2 °F 41.0 °F 29% 30.01 in - North 13.8 mph - N/A   Clear
11:00 PM 74 °F 42 °F 21% 30.00 in - North 13.8 mph - -  
11:00 PM 73.4 °F 42.8 °F 33% 30.01 in - North 13.8 mph - N/A   Clear
11:30 PM 73.4 °F 42.8 °F 33% 29.98 in - North 15.0 mph - N/A   Clear